Regional Weather Roundup
Issued by NWS

Home | Current Version | Previous Version | Text Only | Print | Product List | Glossary Off
Versions: 1 2 3 4 5 6 7 8 9 10 11 12 13 14 15 16 17 18 19 20 21 22 23 24 25 26 27 28 29 30 31 32 33 34 35 36 37 38 39 40 41 42 43 44 45 46 47 48 49 50

000
ASUS43 KMKX 270800
RWRWI

WISCONSIN REGIONAL WEATHER ROUNDUP
NATIONAL WEATHER SERVICE MILWAUKEE/SULLIVAN WI
300 AM CDT MON MAR 27 2017

NOTE: "FAIR" INDICATES FEW OR NO CLOUDS BELOW 12,000 FEET WITH NO
SIGNIFICANT WEATHER AND/OR OBSTRUCTIONS TO VISIBILITY.

WIZ001-002-006>008-014>016-023>028-270900-
NORTHWEST WISCONSIN

CITY           SKY/WX    TMP DP  RH WIND       PRES   REMARKS
SUPERIOR ARPT  CLOUDY    32  32 100 CALM      29.96S
ASHLAND        CLOUDY    33  32  96 CALM      29.94S
HAYWARD        CLOUDY    35  33  92 CALM      29.92R
SIREN          CLOUDY    34  34  98 CALM      29.93F
CUMBERLAND     CLOUDY    32  32 100 N5        29.91R WCI  27
RICE LAKE      CLOUDY    35  35  99 CALM      29.92F
CHETEK         CLOUDY    35  34  98 CALM      29.90F
LADYSMITH      CLOUDY    35  33  91 N5        29.90F WCI  31
EAU CLAIRE     CLOUDY    38  37  97 N3        29.90S
MENOMONIE      CLOUDY    38  38  97 NW6       29.91S WCI  34
NEW RICHMOND   CLOUDY    35  35 100 N3        29.93R
OSCEOLA        CLOUDY    36  36 100 N3        29.96R
$$

WIZ003>005-009-010-017-018-270900-
NORTH CENTRAL WISCONSIN

CITY           SKY/WX    TMP DP  RH WIND       PRES   REMARKS
MANITOWISH WTR CLOUDY    31  31 100 N3        29.86S
ARBOR VITAE    CLOUDY    34  33  96 NW5       29.85S WCI  30
WOODRUFF       CLOUDY    34  33  96 NW5       29.85S WCI  30
RHINELANDER    CLOUDY    35  34  96 NW3       29.86R
EAGLE RIVER    CLOUDY    32  32 100 N5        29.84F WCI  27
LAND O LAKES   CLOUDY    32  32  99 N9        29.86F WCI  24
PHILLIPS       CLOUDY    32  32 100 CALM      29.87F
TOMAHAWK       CLOUDY    33  32  96 CALM      29.87S
MEDFORD        CLOUDY    35  34  99 NW3       29.86S FOG
MERRILL        CLOUDY    36  36 100 N3        29.86F
$$

WIZ029-030-035-036-043>047-270900-
CENTRAL WISCONSIN

CITY           SKY/WX    TMP DP  RH WIND       PRES   REMARKS
WAUSAU         CLOUDY    38  37  97 NW3       29.85S
MOSINEE        CLOUDY    36  36 100 NW3       29.86F
MARSHFIELD     CLOUDY    38  36  92 NW5       29.87R WCI  34
STEVENS POINT  CLOUDY    37  37 100 W3        29.87S
WAUPACA        CLOUDY    39  38  96 CALM      29.87S FOG
WAUTOMA        CLOUDY    39  39 100 SW3       29.89R FOG
WISC RAPIDS    CLOUDY    39  39 100 N3        29.89S FOG
CAMP DOUGLAS   CLOUDY    39  39 100 W6        29.90R WCI  35
$$

WIZ011>013-019>022-031-037>040-048>050-270900-
NORTHEAST WISCONSIN

CITY           SKY/WX    TMP DP  RH WIND       PRES   REMARKS
ANTIGO         CLOUDY    35  35 100 NW3       29.85S
SHAWANO        CLOUDY    38  37  94 CALM      29.87S
OCONTO         CLOUDY    36  36  99 CALM      29.86S
STURGEON BAY   FOG       35  35 100 NW7       29.86S VSB 3/4 WCI  29
GREEN BAY      CLOUDY    38  38 100 W5        29.87S WCI  34
MANITOWOC      CLOUDY    37  36  93 W6        29.87R WCI  33
APPLETON       CLOUDY    36  36 100 W3        29.85S
CLINTONVILLE   CLOUDY    36  36 100 W5        29.87S WCI  32
OSHKOSH        CLOUDY    38  37  97 NW3       29.87S
$$

WIZ032>034-041-042-053>061-270900-
SOUTHWEST WISCONSIN

CITY           SKY/WX    TMP DP  RH WIND       PRES   REMARKS
LA CROSSE      CLOUDY    42  40  92 CALM      29.90F
SPARTA         CLOUDY    39  39 100 CALM      29.92R FOG
VIROQUA        CLOUDY    39  39 100 NW3       29.89F VSB 1/2
BOSCOBEL       LGT RAIN  42  41  96 CALM      29.91S FOG
PRAIRIE DU CHI CLOUDY    41  40  93 CALM      29.90F
PLATTEVILLE    MOCLDY    42  42 100 N3        29.90F
$$

WIZ056-057-062-063-064-067-068-270900-
SOUTH CENTRAL WISCONSIN

CITY           SKY/WX    TMP DP  RH WIND       PRES   REMARKS
REEDSBURG      CLOUDY    39  39 100 W3        29.90R FOG
BARABOO/DELLS  CLOUDY    39  38  99 CALM      29.89R FOG
LONE ROCK      CLOUDY    42  40  92 NW3       29.91S
MINERAL POINT  CLOUDY    43  43 100 CALM      29.90R FOG
MADISON        CLOUDY    40  39  97 MISG      29.90R
MIDDLETON      CLOUDY    42  42 100 NW5       29.90S
WATERTOWN      CLOUDY    40  40 100 W3        29.89R
MONROE         CLOUDY    41  41 100 CALM      29.89S FOG
JANESVILLE     CLOUDY    43  43 100 CALM      29.89F
$$

WIZ051-052-058>065-066-070>072-270900-
SOUTHEAST WISCONSIN

CITY           SKY/WX    TMP DP  RH WIND       PRES   REMARKS
MILWAUKEE      CLOUDY    44  41  89 W3        29.88R
WAUKESHA       CLOUDY    37  37 100 W7        29.89R WCI  32
MILWAUKEE/TIMM CLOUDY    41  37  87 W5        29.88R
RACINE         CLOUDY    44  42  93 W3        29.90R
KENOSHA        CLOUDY    44  43  96 W7        29.90R
FOND DU LAC    CLOUDY    39  36  89 W5        29.88R
SHEBOYGAN      CLOUDY    39  36  89 N6        29.85F WCI  35
WEST BEND      CLOUDY    37  37 100 W5        29.87R FOG     WCI  34
JUNEAU         CLOUDY    38  37  97 CALM      29.90R
$$

LSZ147-162-270900-
LAKE SUPERIOR

STATION/POSITION TIME  TEMP    WIND        PRES    WAVE
                       AIR SEA DIR/SP/G            HT/PER
                 (UTC) (F)     (DEG/KT/KT) (MB)    (FT/S)
DEVILS ISLAND    0700   33     310/  6/  7 1014.7F
PORT WING        0730   34     340/  4/  5 1014.2S
SAXON HARBOR     0730   33     320/  5/  7 1013.5S
$$

LMZ867-665-643>646-270900-
LAKE MICHIGAN

STATION/POSITION TIME  TEMP    WIND        PRES    WAVE
                       AIR SEA DIR/SP/G            HT/PER
                 (UTC) (F)     (DEG/KT/KT) (MB)    (FT/S)
CHAMBERS ISLAND  0740   35     270/  3/  5 1010.8S
NORTHPORT PIER   0740   34     310/  8/ 11 1010.8F
SISTER BAY       0706   33     350/  6/  7   N/A
KEWAUNEE LAKESHO 0730   36     310/  2/  5 1010.7S
SHEBOYGAN LAKESH 0700   39     280/  5/  6 1011.8S
PORT WASHINGTON  0740   41     290/  3/  6 1012.5R
MILWAUKEE LAKESH 0730   42     280/  4/  5   N/A
KENOSHA   LAKESH 0700   41      CALM  /  2 1012.2
$$

TC  - TEMPERATURE IN CELSIUS
VSB - VISIBILITY IN STATUTE MILES
WCI - WIND CHILL INDEX
HX  - HEAT INDEX





USA.gov is the U.S. government's official web portal to all federal, state and local government web resources and services.